Temperature
21 18 17 17 18 18 20 20 20 21 22 21 20 19 18 18 17 16 16 15 15 15 15 16 16 17 17 17 17 17 17 17 17 17 17 16 16 16 16 16 16 16 16 16
18 17 19 20 21 21 20 21 21 21 22 21 19 18 17 17 16 16 15 15 15 15 15 15 15 16 16 16 16 17 17 16 16 16 16 16 16 16 16 16 16 16 16 16
18 19 21 22 21 21 21 21 21 21 21 21 20 18 17 16 16 15 15 14 14 14 14 14 14 15 15 15 15 16 16 16 16 16 16 16 15 15 15 15 15 15 15 15
19 21 22 22 22 22 21 22 22 22 20 18 19 17 16 15 15 14 13 13 12 12 13 13 13 13 14 14 14 15 15 15 15 15 15 15 15 15 15 15 15 15 15 15
19 21 21 21 22 22 21 22 21 21 19 17 17 16 15 15 15 14 13 12 12 11 12 12 12 12 13 13 13 13 14 14 15 15 15 15 15 15 15 14 14 14 14 14
20 22 22 22 23 23 22 20 19 16 16 16 16 16 15 14 14 13 12 12 11 11 11 11 11 11 12 12 12 13 13 14 14 14 14 14 14 14 14 14 14 14 14 14
20 21 22 22 22 22 21 17 16 16 15 15 16 15 14 14 14 13 12 11 11 11 11 11 11 11 11 11 12 12 12 13 13 13 13 14 13 13 13 13 13 13 13 13
19 19 21 22 21 21 20 18 16 16 15 15 15 15 14 13 13 12 11 11 10 10 10 10 10 10 10 11 11 12 12 12 12 12 13 13 13 13 13 12 12 12 12 12
19 19 22 23 22 21 20 18 17 15 15 14 14 14 13 13 12 11 11 10 10 10 10 9 9 9 9 10 10 11 11 11 11 12 12 12 12 12 12 12 12 12 12 11
19 19 21 22 21 20 19 18 15 15 15 15 15 14 13 13 12 11 10 9 9 9 9 9 9 9 9 9 9 10 10 10 10 10 11 11 11 11 11 11 11 10 10 10
19 18 19 20 19 19 19 18 16 14 14 14 14 14 15 13 12 11 10 9 9 9 9 8 8 8 8 8 9 9 9 9 9 9 9 10 10 10 10 10 10 9 9 9
18 16 17 18 19 19 19 18 16 15 15 14 14 14 14 13 12 11 10 9 9 9 8 8 8 8 8 8 8 8 8 8 9 9 9 9 9 9 9 9 9 9 9 9
18 16 16 16 17 18 18 18 17 15 14 14 14 14 13 12 11 10 9 9 8 8 8 8 7 7 7 7 7 7 7 8 8 8 8 8 8 8 8 8 8 8 8 8
18 16 16 16 16 17 18 19 18 15 14 14 14 14 12 11 10 9 9 8 8 8 8 7 7 7 7 7 7 7 7 7 7 7 7 7 7 7 7 7 7 7 7 7
16 16 18 18 18 18 18 19 18 17 16 15 15 14 12 11 10 9 8 8 8 7 7 7 7 7 7 6 6 6 6 7 7 7 7 7 6 7 7 7 7 7 7 7
14 16 17 17 19 19 18 19 18 18 17 16 14 13 12 11 10 9 8 8 7 7 7 7 7 7 6 6 6 6 6 6 6 6 6 6 6 6 6 6 6 6 6 6
14 15 15 15 17 18 17 17 17 17 17 15 14 13 11 10 10 9 8 8 7 7 7 7 7 7 6 6 6 6 6 6 6 6 6 6 6 6 6 6 6 6 6 6
14 14 13 14 16 16 16 17 17 16 16 15 13 12 11 10 9 9 9 8 7 7 7 7 7 6 6 6 6 6 6 6 6 6 6 6 6 6 5 5 5 5 5 5
14 14 14 14 15 16 17 17 17 16 14 13 12 11 10 9 9 8 8 8 8 8 7 7 7 6 6 6 6 6 6 6 6 6 6 6 6 5 5 5 5 5 5 5
14 13 14 14 15 15 16 17 17 15 13 13 12 11 9 9 9 8 8 8 8 7 7 6 6 6 6 6 6 6 6 6 6 6 6 5 5 5 5 5 5 5 5 5
14 14 14 14 14 15 16 16 17 15 14 13 12 11 10 10 9 9 8 8 7 7 7 6 6 6 6 6 6 6 6 6 6 6 5 5 5 5 5 5 5 5 5 5
13 13 13 13 14 14 16 16 15 14 13 13 12 11 10 10 9 8 8 7 7 6 6 6 6 6 6 6 6 6 6 6 5 5 5 5 5 5 5 5 5 5 5 5
13 12 12 12 13 14 15 15 15 15 13 12 12 11 10 9 8 8 7 7 6 6 6 6 6 6 6 6 6 6 6 6 5 5 5 5 5 5 5 5 5 5 5 5
12 12 12 12 13 14 14 15 15 15 14 13 12 11 10 9 8 7 7 7 6 6 6 6 6 6 5 6 6 6 6 6 6 5 5 5 5 5 5 5 5 5 5 5
12 12 12 13 13 13 13 14 14 14 13 12 11 11 10 9 8 7 7 6 6 6 6 6 6 6 6 6 6 6 6 6 6 5 5 5 5 5 5 6 6 6 6 6
12 12 12 12 13 12 13 13 13 13 12 11 10 9 9 9 8 7 7 7 6 6 6 6 6 6 6 6 6 6 6 6 6 6 6 5 5 5 6 6 6 6 6 5
Wind_Speed
3 2 6 10 9 9 7 7 9 8 4 4 5 4 1 2 7 9 8 9 10 9 8 9 10 10 10 10 8 7 4 1 1 3 4 3 3 3 2 1 2 1 1 3
3 7 14 11 9 9 10 9 8 7 4 3 4 2 1 2 4 6 8 9 8 8 8 10 10 11 11 10 9 8 5 2 0 2 3 3 3 3 2 2 2 2 2 2
9 10 9 9 12 11 8 6 5 5 4 3 3 2 2 4 5 7 8 8 8 9 9 9 10 11 11 10 9 7 6 3 2 1 3 4 3 3 3 2 1 2 2 2
8 11 10 9 8 7 7 6 2 2 3 3 2 2 3 1 4 6 7 7 8 9 9 9 9 10 10 10 9 8 6 5 3 3 3 5 5 5 3 3 3 2 4 4
7 6 6 7 7 5 6 3 0 1 1 2 4 2 4 1 2 3 5 6 8 9 10 10 9 9 8 9 8 8 7 7 6 5 5 5 5 4 4 4 5 5 4 5
11 9 6 6 7 4 2 4 6 6 5 2 4 1 3 2 2 3 4 7 8 8 9 9 9 9 9 9 8 7 8 8 7 7 6 6 6 6 6 6 5 5 5 5
8 8 6 4 3 4 4 6 5 6 5 3 3 1 3 3 1 5 7 8 8 8 8 8 10 10 9 10 9 8 8 8 8 8 8 8 7 7 8 7 7 7 6 6
3 7 5 2 3 3 1 7 6 4 4 4 3 1 2 2 3 6 8 9 9 8 8 9 8 8 8 9 9 8 8 8 8 8 9 9 8 7 7 8 8 8 7 7
4 5 5 5 1 4 1 1 6 6 2 0 2 2 2 3 4 6 8 8 8 7 8 8 7 8 7 8 8 8 7 8 8 9 9 9 9 9 9 9 8 7 8 8
5 5 6 5 6 4 4 4 5 5 4 2 3 4 5 7 7 6 7 8 7 7 7 7 7 7 7 7 7 8 8 9 9 9 8 9 9 9 9 10 10 9 9 8
3 3 4 4 1 3 2 2 4 4 5 5 4 6 4 9 11 9 9 8 8 8 7 6 6 6 6 7 7 8 8 9 9 9 8 9 9 9 10 10 10 9 9 9
1 4 1 4 4 2 3 3 5 4 3 5 4 6 1 7 9 11 11 10 8 8 7 7 6 5 5 6 6 7 8 8 8 8 9 9 9 10 10 10 10 10 10 9
2 4 3 7 7 5 2 2 3 5 4 4 4 4 1 6 9 10 11 10 9 9 8 7 6 6 5 5 6 7 7 8 8 8 9 9 9 10 10 10 9 10 10 10
1 2 5 5 7 5 5 5 1 4 3 4 6 6 6 9 12 11 11 11 10 9 8 7 6 5 5 5 5 6 6 6 7 8 8 9 8 8 9 9 9 10 10 10
3 1 3 5 6 4 5 6 3 4 7 7 7 9 11 14 14 14 13 12 12 10 9 8 7 5 5 5 5 6 6 6 7 8 9 8 8 8 9 9 9 9 9 10
4 1 4 6 6 5 5 4 2 2 3 5 6 4 6 11 11 12 13 13 12 11 10 8 8 7 6 5 5 5 6 5 6 7 8 8 8 9 9 9 9 9 9 9
2 1 2 5 7 5 4 3 1 1 3 7 7 7 14 13 14 15 14 13 12 11 10 9 8 7 6 5 5 5 4 4 5 6 7 7 7 8 8 9 9 9 8 9
4 1 1 3 5 3 5 3 1 2 2 2 6 11 15 13 10 9 11 12 12 12 11 9 8 7 6 5 5 5 5 5 6 6 6 6 7 8 8 8 8 7 7 7
8 6 3 1 2 5 3 3 0 3 0 2 9 13 12 14 9 5 6 9 10 10 9 8 8 7 6 6 5 6 6 5 6 6 6 6 7 8 8 7 6 6 6 6
3 4 4 2 2 5 6 4 1 5 2 5 11 17 16 13 8 7 9 11 11 11 9 8 8 8 7 5 5 7 6 6 6 5 6 6 6 7 7 6 5 5 5 5
3 1 3 4 4 6 5 4 3 2 7 8 12 16 15 8 6 11 14 12 12 11 10 9 9 7 6 5 6 7 6 5 5 5 6 6 6 6 6 5 5 6 6 6
1 0 1 2 3 6 4 0 3 6 3 10 10 12 10 10 14 16 15 14 13 12 10 9 9 7 5 6 6 7 5 5 6 6 6 6 5 5 5 6 5 5 6 6
1 2 3 4 6 6 3 2 1 6 8 7 9 11 14 14 15 16 15 14 13 11 10 8 9 8 6 6 7 7 5 6 7 7 6 5 5 5 5 5 5 5 5 5
3 2 2 2 3 2 2 4 4 7 9 10 13 15 16 16 17 16 15 13 11 10 9 8 9 8 6 5 5 5 5 6 7 6 5 5 6 7 7 5 4 4 4 4
5 2 1 2 1 3 4 5 9 11 14 15 14 14 16 18 17 15 13 12 11 9 8 7 8 7 6 5 5 5 5 7 7 6 6 6 6 7 7 6 5 4 2 4
5 4 3 4 5 5 4 6 12 14 14 16 16 14 13 15 15 13 12 10 9 10 8 8 8 7 7 6 5 4 5 7 7 6 6 5 5 5 5 6 6 9 6 7
Wind_Direction
242 128 238 235 215 218 251 276 288 291 300 100 127 139 149 98 99 107 105 99 92 82 60 47 42 41 43 43 46 43 38 39 162 145 146 156 163 149 130 136 107 113 158 187
332 259 244 244 248 248 249 260 279 300 329 94 129 110 66 62 98 114 112 103 97 83 61 45 35 34 39 34 33 36 39 24 334 160 166 160 138 116 117 91 80 77 132 161
226 250 258 252 258 254 258 243 256 276 328 26 105 21 19 32 71 75 78 90 92 86 70 50 35 31 31 27 22 24 22 35 25 92 128 122 116 116 112 116 100 66 83 104
246 258 271 273 261 229 254 252 251 324 26 323 48 264 306 71 60 68 67 71 77 77 73 59 44 36 28 19 12 16 19 21 31 83 118 144 145 138 140 129 114 86 56 53
264 280 289 278 262 238 230 232 137 352 62 28 9 97 294 42 55 72 73 74 68 66 65 56 44 35 28 21 14 6 13 27 35 68 100 109 119 123 119 111 101 85 66 56
265 276 261 247 266 239 197 49 27 39 61 32 305 163 285 283 227 151 116 98 88 77 65 53 42 30 24 23 21 16 25 31 34 54 73 91 112 115 109 102 98 84 75 65
298 295 282 267 296 318 62 76 22 355 7 269 296 116 248 288 252 158 138 117 99 83 69 52 39 29 22 22 23 31 36 35 37 54 68 79 87 89 92 92 90 86 80 71
283 296 298 286 201 212 200 142 163 209 229 263 325 226 254 6 81 113 116 108 95 83 71 58 44 32 25 23 25 37 44 46 47 59 70 76 80 83 82 81 85 82 81 75
226 271 293 297 222 150 171 212 171 143 142 120 273 258 265 130 120 120 114 107 93 84 77 66 52 42 35 31 29 35 47 55 58 66 72 75 78 83 88 87 83 81 78 78
198 259 291 318 27 29 150 153 88 112 147 223 259 249 231 195 192 165 137 123 110 97 88 81 66 54 43 39 37 38 47 58 62 67 73 78 76 81 85 88 85 80 76 77
200 201 308 5 12 286 356 83 113 121 151 162 232 257 224 190 187 171 150 135 128 115 104 92 77 64 56 50 49 52 53 60 63 66 71 75 77 80 83 83 83 83 79 77
298 128 274 282 264 214 163 182 147 152 211 180 192 258 296 174 170 155 145 138 131 119 109 99 89 78 65 58 57 60 61 64 63 66 73 75 77 79 80 81 80 81 81 77
355 93 37 343 339 348 356 250 167 138 131 164 185 249 85 130 138 143 141 137 130 120 111 104 93 86 80 71 68 68 67 69 67 70 75 76 75 78 80 81 81 81 82 79
342 130 167 209 241 265 289 286 235 128 158 200 208 193 170 159 152 148 143 139 132 126 124 118 107 100 93 84 79 78 75 74 77 76 77 77 75 78 82 82 82 82 82 81
57 208 248 254 265 265 271 268 249 213 197 190 200 183 188 178 165 155 148 142 139 136 133 130 126 118 107 96 88 87 84 80 83 84 82 79 77 78 80 81 81 81 82 83
14 350 338 312 299 303 309 302 268 241 163 146 141 177 162 147 143 151 153 152 150 147 144 139 135 133 125 119 113 104 98 91 88 91 90 88 86 83 82 83 83 83 82 80
316 54 10 295 306 334 312 304 291 193 175 160 183 179 146 152 164 167 164 159 156 154 150 146 144 139 136 136 130 125 121 113 105 100 97 97 97 92 86 91 86 87 88 85
203 148 186 277 349 292 260 285 191 112 42 145 136 149 158 157 151 153 157 156 156 154 152 148 145 136 132 131 129 122 114 110 107 104 103 103 102 98 93 91 90 89 89 90
193 172 181 193 260 280 282 296 182 134 26 149 138 139 132 122 111 126 152 149 150 149 145 142 138 130 126 126 128 117 108 103 99 98 101 102 101 100 98 96 94 92 92 87
158 151 156 173 211 250 252 273 311 100 183 188 153 149 148 141 157 176 157 141 138 136 136 135 132 127 129 133 126 118 112 106 103 103 103 103 105 108 108 106 100 93 96 93
21 62 175 194 220 258 256 279 348 217 229 172 160 157 159 169 167 146 141 137 138 137 137 135 133 132 138 134 119 114 113 116 119 108 100 100 102 107 108 100 98 100 96 89
327 8 232 169 213 254 286 331 206 217 135 140 150 155 145 126 123 131 136 137 139 138 138 136 134 134 136 130 121 117 120 120 108 101 99 99 95 98 103 98 98 102 105 99
239 190 213 206 224 259 292 196 168 131 126 130 141 140 133 130 133 135 137 140 141 140 137 134 133 131 127 125 126 126 131 119 106 99 97 92 80 75 86 99 102 97 103 109
286 232 199 250 256 285 48 82 85 116 123 128 135 136 136 134 136 136 139 140 138 136 136 134 135 133 133 133 132 133 131 124 116 113 104 95 88 77 68 73 90 106 116 120
264 286 287 261 184 73 55 106 114 108 112 117 122 128 135 135 138 140 141 143 143 140 139 140 141 141 146 145 140 137 129 122 118 116 111 103 97 97 84 70 59 87 107 157
233 203 201 237 216 156 165 143 127 123 126 128 126 123 131 136 138 139 140 141 142 143 140 139 138 138 141 140 140 140 135 129 124 119 119 119 115 108 106 100 71 47 63 92
Height
1491 1497 1501 1497 1496 1497 1497 1498 1497 1487 1477 1482 1488 1492 1491 1489 1488 1489 1490 1491 1492 1494 1496 1497 1497 1496 1495 1496 1497 1497 1497 1497 1499 1502 1504 1506 1507 1508 1510 1512 1514 1516 1517 1518
1496 1498 1489 1487 1488 1490 1492 1495 1492 1485 1478 1482 1490 1494 1492 1491 1490 1490 1490 1491 1492 1494 1494 1495 1496 1495 1495 1495 1496 1496 1496 1497 1498 1500 1501 1503 1505 1506 1506 1508 1511 1513 1514 1515
1498 1489 1482 1484 1485 1488 1487 1489 1488 1486 1481 1482 1489 1498 1496 1495 1494 1495 1494 1494 1494 1493 1494 1495 1496 1495 1494 1495 1494 1494 1495 1496 1497 1498 1499 1500 1502 1503 1504 1506 1507 1509 1509 1510
1490 1482 1482 1482 1482 1482 1488 1478 1479 1481 1490 1499 1494 1510 1502 1499 1499 1499 1499 1498 1497 1496 1496 1496 1496 1496 1495 1495 1495 1494 1494 1495 1496 1497 1498 1499 1499 1500 1502 1502 1503 1504 1505 1506
1487 1480 1481 1481 1477 1475 1478 1474 1477 1481 1488 1499 1500 1508 1508 1500 1502 1502 1502 1501 1501 1499 1497 1498 1497 1497 1497 1496 1496 1495 1494 1494 1495 1495 1496 1496 1497 1498 1499 1500 1501 1501 1502 1503
1481 1475 1475 1473 1469 1469 1471 1477 1483 1490 1499 1512 1506 1508 1511 1505 1501 1500 1501 1502 1502 1501 1500 1500 1499 1498 1497 1496 1496 1495 1494 1494 1493 1493 1494 1495 1495 1496 1497 1499 1499 1499 1500 1501
1484 1475 1470 1468 1471 1469 1473 1492 1509 1512 1520 1517 1504 1507 1510 1501 1497 1497 1499 1501 1501 1501 1501 1501 1500 1499 1498 1497 1496 1495 1494 1494 1493 1493 1493 1494 1495 1496 1497 1498 1498 1498 1499 1499
1493 1490 1472 1467 1470 1474 1475 1487 1510 1519 1522 1517 1507 1508 1506 1501 1499 1498 1500 1501 1501 1501 1501 1501 1501 1501 1500 1498 1497 1495 1495 1494 1494 1494 1494 1494 1495 1496 1497 1497 1498 1499 1499 1500
1490 1487 1469 1464 1463 1468 1477 1484 1487 1504 1510 1518 1513 1507 1504 1500 1500 1501 1501 1502 1502 1503 1503 1504 1503 1503 1502 1500 1498 1497 1496 1495 1494 1494 1494 1495 1496 1496 1497 1498 1499 1500 1500 1502
1480 1486 1473 1466 1464 1467 1472 1478 1493 1503 1514 1519 1513 1508 1505 1499 1499 1500 1502 1502 1503 1504 1505 1505 1505 1504 1503 1502 1501 1500 1499 1497 1496 1496 1496 1497 1497 1498 1498 1499 1500 1502 1503 1505
1475 1485 1480 1474 1476 1476 1475 1480 1489 1500 1504 1514 1518 1509 1490 1492 1494 1497 1500 1502 1504 1505 1506 1506 1506 1506 1506 1505 1504 1503 1501 1500 1500 1500 1500 1499 1500 1501 1501 1502 1503 1505 1506 1507
1475 1484 1488 1480 1472 1469 1473 1477 1485 1498 1501 1502 1508 1506 1487 1488 1490 1494 1498 1502 1504 1506 1507 1507 1508 1508 1508 1508 1507 1505 1505 1504 1503 1503 1503 1503 1503 1504 1504 1505 1507 1508 1510 1511
1477 1486 1497 1494 1487 1476 1474 1473 1476 1485 1494 1501 1506 1501 1489 1489 1492 1495 1498 1502 1504 1506 1508 1509 1510 1510 1511 1510 1509 1508 1508 1507 1507 1507 1507 1507 1507 1508 1509 1510 1511 1513 1514 1515
1475 1485 1494 1497 1492 1481 1478 1473 1472 1481 1495 1495 1492 1491 1491 1491 1493 1497 1499 1502 1504 1507 1509 1511 1511 1512 1512 1512 1512 1511 1511 1511 1511 1510 1510 1511 1511 1512 1513 1514 1516 1517 1518 1519
1477 1483 1479 1478 1473 1473 1473 1470 1469 1474 1478 1484 1482 1484 1486 1487 1491 1496 1499 1502 1505 1508 1510 1512 1513 1513 1514 1513 1514 1514 1514 1514 1514 1514 1514 1515 1516 1517 1517 1518 1520 1521 1522 1523
1480 1482 1480 1479 1471 1469 1470 1466 1466 1467 1468 1473 1478 1482 1481 1487 1492 1496 1499 1502 1505 1508 1510 1512 1514 1514 1515 1515 1516 1516 1517 1517 1518 1518 1518 1519 1520 1520 1521 1522 1524 1525 1526 1527
1483 1485 1487 1488 1476 1473 1478 1470 1468 1466 1465 1470 1476 1479 1482 1488 1491 1494 1498 1501 1504 1507 1510 1512 1514 1515 1516 1518 1518 1519 1520 1521 1521 1522 1522 1523 1524 1524 1525 1526 1527 1528 1529 1531
1482 1485 1490 1490 1484 1488 1478 1465 1464 1466 1466 1465 1468 1474 1479 1484 1490 1494 1497 1500 1504 1507 1510 1512 1514 1516 1518 1520 1521 1522 1523 1524 1525 1525 1526 1527 1527 1527 1528 1530 1531 1532 1533 1534
1474 1481 1488 1492 1490 1484 1472 1466 1465 1468 1471 1468 1471 1477 1482 1487 1493 1498 1499 1501 1504 1507 1510 1513 1515 1517 1519 1521 1523 1524 1526 1527 1528 1529 1529 1530 1530 1531 1532 1533 1534 1535 1536 1538
1470 1475 1484 1488 1488 1487 1474 1463 1462 1466 1475 1470 1471 1476 1482 1486 1493 1496 1498 1501 1505 1508 1511 1514 1517 1519 1522 1524 1526 1527 1528 1530 1531 1532 1533 1534 1534 1535 1536 1537 1538 1539 1540 1541
1477 1479 1483 1485 1486 1477 1465 1461 1463 1474 1472 1467 1470 1474 1479 1482 1486 1491 1496 1501 1505 1508 1512 1515 1518 1521 1524 1526 1528 1529 1531 1532 1534 1535 1536 1537 1538 1538 1539 1540 1541 1542 1543 1545
1482 1483 1483 1483 1485 1480 1462 1462 1465 1465 1461 1465 1470 1474 1478 1482 1486 1490 1496 1501 1506 1509 1513 1517 1520 1523 1526 1528 1530 1532 1533 1535 1536 1537 1539 1540 1541 1542 1543 1543 1544 1545 1547 1548
1480 1481 1481 1480 1478 1467 1463 1461 1461 1461 1463 1466 1470 1474 1478 1483 1487 1492 1497 1503 1507 1511 1515 1518 1521 1525 1528 1530 1532 1534 1536 1537 1539 1540 1541 1542 1543 1545 1546 1547 1548 1549 1550 1551
1478 1476 1476 1474 1468 1466 1464 1462 1463 1463 1465 1468 1471 1475 1479 1483 1489 1494 1499 1505 1509 1513 1517 1520 1524 1527 1529 1532 1534 1536 1538 1540 1541 1542 1544 1545 1546 1547 1549 1550 1551 1552 1553 1554
1478 1475 1475 1472 1468 1466 1466 1465 1466 1467 1469 1472 1475 1479 1482 1485 1491 1496 1501 1506 1511 1515 1519 1523 1526 1528 1531 1534 1536 1539 1540 1542 1543 1545 1546 1548 1549 1550 1551 1552 1553 1555 1556 1557
1472 1472 1473 1470 1466 1467 1468 1468 1469 1470 1473 1475 1478 1483 1487 1489 1494 1499 1504 1509 1513 1517 1521 1524 1528 1531 1533 1536 1538 1541 1543 1544 1546 1547 1548 1550 1551 1552 1553 1554 1555 1556 1557 1559